Theta_e
314 309 309 309 309 311 313 314 313 313 314 314 312 311 311 314 314 314 316 316 317 317 317 317 317 317 317 317 318 322 325 325 327 328 325 326 325 324 324 325 326 326 326 324
309 309 310 310 312 313 314 314 313 313 313 313 312 311 309 311 313 314 314 315 316 317 317 317 317 317 317 317 316 317 320 323 323 324 322 323 322 322 323 324 326 327 327 324
311 313 311 314 314 314 314 313 313 313 313 311 312 310 311 312 313 315 315 315 315 316 316 317 317 317 317 317 317 317 316 317 320 321 323 324 323 323 324 324 324 324 326 324
313 313 313 314 314 312 314 313 313 314 311 310 311 310 310 312 310 309 313 316 317 317 317 317 316 317 317 317 318 318 317 316 317 320 322 322 321 320 319 321 321 321 322 323
312 312 312 313 313 312 312 313 313 314 313 314 312 310 309 309 311 310 312 315 316 317 318 318 317 317 317 317 318 318 317 316 316 317 319 320 320 319 319 320 319 319 318 317
312 312 312 312 311 312 312 313 313 313 311 311 311 309 307 308 310 312 313 316 317 316 317 318 318 318 317 317 316 317 316 316 315 315 316 316 316 316 316 316 315 315 314 314
313 312 312 312 312 311 313 309 309 311 313 310 309 310 309 310 310 313 313 314 316 316 316 316 315 315 315 315 315 315 315 315 314 314 314 314 314 314 314 314 314 314 314 314
312 311 311 311 311 312 312 309 309 311 314 311 309 311 312 310 312 315 315 314 314 314 315 315 315 315 315 315 314 314 314 314 314 313 313 313 313 313 313 313 313 313 313 313
310 311 310 310 311 311 312 313 311 311 299 308 309 309 309 310 311 313 313 314 316 316 316 316 316 316 315 315 315 315 316 315 315 315 314 314 314 313 313 313 313 313 313 313
312 313 309 310 311 310 311 311 312 309 308 309 308 308 310 310 311 309 312 315 316 316 315 314 315 315 315 315 315 315 316 316 316 316 316 315 315 315 315 315 315 314 314 313
310 311 310 310 310 311 311 311 311 311 310 311 310 309 306 309 311 311 313 315 315 315 315 314 315 315 315 316 316 316 315 315 316 316 316 316 316 316 316 316 315 314 313 313
311 311 309 310 309 309 309 309 310 311 311 308 310 312 311 311 312 314 314 315 315 315 315 315 315 315 315 315 315 315 315 314 314 315 315 314 315 315 315 315 315 314 313 312
312 312 306 311 311 309 311 310 310 310 307 310 309 312 308 309 311 312 313 314 315 315 315 315 316 315 315 315 315 315 314 314 314 314 314 314 314 314 314 314 314 313 313 312
313 312 311 311 314 314 312 314 313 311 310 311 311 312 311 310 309 310 312 313 315 314 315 315 315 315 315 315 315 315 315 314 314 314 314 314 313 314 313 313 312 312 312 312
313 314 313 312 313 315 316 315 314 314 312 313 312 312 312 311 311 312 312 313 313 314 314 315 315 315 315 315 315 314 314 314 314 314 314 314 313 312 312 312 311 311 310 311
311 312 313 313 312 313 314 314 313 314 313 311 311 311 311 311 311 311 312 313 314 314 314 314 314 314 314 314 314 314 314 314 314 314 313 313 312 311 311 311 310 310 309 309
312 311 312 313 311 312 313 311 312 313 312 312 313 312 311 311 311 312 314 314 312 311 311 311 311 312 313 314 313 313 313 313 312 312 312 312 311 311 310 309 309 309 308 307
311 309 309 309 308 312 307 307 310 311 311 311 312 312 312 312 311 311 312 309 309 309 309 309 310 311 311 312 312 312 312 312 312 312 312 312 312 311 310 308 308 307 306 305
307 308 305 299 298 304 307 306 306 305 304 303 304 306 308 306 306 310 310 304 304 305 306 306 307 309 309 309 309 310 311 311 311 311 311 311 311 311 311 310 307 305 304 303
305 306 307 292 303 300 303 303 303 304 304 304 304 304 304 304 304 303 304 304 303 303 303 302 305 307 308 308 309 309 309 309 310 310 310 310 310 308 307 306 306 304 303 302
303 304 305 304 302 297 299 300 304 303 301 304 304 304 303 303 303 302 302 302 302 302 302 302 302 304 306 306 307 308 308 309 308 307 307 306 306 306 305 303 302 301 300 299
302 302 303 304 304 304 302 303 303 302 304 303 303 302 303 300 300 300 300 302 302 301 301 301 302 302 304 306 306 306 307 307 306 305 303 303 301 300 301 300 299 299 298 297
294 297 294 299 299 300 305 303 303 306 303 301 301 301 300 299 300 299 300 302 303 302 301 302 303 304 304 306 305 305 305 305 302 303 301 299 299 298 297 297 296 296 296 293
293 296 293 294 294 295 299 299 299 300 300 298 298 298 299 299 299 299 300 301 300 300 300 301 302 302 303 303 302 301 302 300 298 300 298 297 295 295 295 294 294 295 295 294
294 294 291 290 294 297 298 298 297 297 297 297 297 296 297 297 298 298 299 299 298 300 301 301 301 301 301 300 300 299 297 296 296 298 298 296 293 293 293 293 294 293 292 292
294 294 293 292 295 295 295 295 295 296 297 297 296 297 297 297 298 298 298 297 296 298 298 299 300 299 299 299 295 295 295 293 293 293 295 295 293 293 293 294 293 292 293 293
Wind_Speed
3 4 6 10 8 6 4 3 0 2 2 3 6 7 12 25 23 24 30 31 29 28 24 22 26 28 29 28 31 34 37 36 36 36 37 42 41 38 36 36 34 33 37 36
5 4 8 6 6 5 2 2 3 1 1 2 4 12 10 18 22 28 33 34 32 30 28 26 27 28 31 30 30 33 38 39 38 38 36 40 42 40 39 36 36 35 36 37
6 3 8 5 2 4 2 4 3 2 3 2 2 9 6 6 10 18 23 28 30 32 30 26 25 29 30 33 31 30 34 38 39 38 37 37 39 39 40 41 40 40 41 40
5 4 5 3 3 4 2 1 5 3 4 3 4 6 5 7 11 7 17 22 25 24 21 19 23 27 29 31 30 30 29 32 35 37 39 40 41 42 41 42 41 40 40 42
7 6 5 3 4 6 5 0 3 3 2 2 2 1 7 5 6 10 15 10 6 6 9 12 12 13 21 22 27 28 28 29 33 37 40 40 40 41 40 39 39 40 40 41
3 2 3 6 3 1 7 5 6 5 3 3 8 8 5 4 6 2 4 6 5 3 2 3 6 12 14 15 19 23 27 30 31 34 37 39 39 39 38 39 39 39 39 38
2 2 1 4 6 7 4 6 1 3 2 6 3 2 6 8 9 3 5 5 2 2 2 5 9 11 12 13 15 19 23 24 25 28 31 33 34 35 36 37 39 39 39 41
6 4 9 6 7 8 7 7 5 7 4 5 3 6 5 10 14 3 2 2 1 6 9 10 10 9 9 10 13 15 17 18 19 21 23 25 28 30 32 34 34 37 38 38
6 5 2 3 4 8 5 5 5 4 2 3 5 6 8 7 9 15 13 5 8 7 8 8 7 8 6 7 7 7 10 10 11 13 16 18 21 24 26 27 29 31 33 35
4 3 3 2 2 4 6 5 3 2 1 4 4 5 6 7 12 9 6 8 8 10 11 9 6 4 5 4 2 2 4 6 7 8 11 13 16 18 21 23 26 27 29 30
6 4 2 1 5 8 2 3 3 4 5 5 2 6 6 7 4 8 9 10 11 9 10 14 14 13 14 13 11 12 16 17 12 11 14 17 22 25 25 27 27 28 29 30
2 4 4 7 2 2 3 7 6 4 3 4 4 13 3 8 7 12 10 11 8 5 4 9 13 15 17 20 24 26 23 23 19 19 22 24 26 30 32 31 30 30 31 30
4 1 3 4 3 3 3 4 5 4 3 7 4 12 2 12 11 12 14 18 13 8 9 15 20 22 26 28 30 29 30 27 24 24 27 30 31 32 35 33 31 31 31 31
8 2 5 7 4 3 4 3 2 6 5 9 13 17 14 14 13 11 19 24 9 12 18 21 21 25 27 31 31 33 36 31 28 29 30 34 34 31 32 33 33 33 34 33
5 6 5 6 6 3 2 6 7 4 3 4 5 9 12 10 15 24 23 31 30 22 19 22 26 28 31 34 35 35 33 33 31 31 35 39 34 29 31 35 37 36 35 33
2 5 6 3 10 6 6 14 14 15 12 14 14 21 13 25 28 23 24 15 27 33 31 29 25 24 26 28 29 31 32 33 33 37 39 38 36 34 32 33 34 33 33 33
4 4 4 4 5 4 5 14 14 15 14 14 16 20 18 19 14 8 16 22 19 14 16 17 16 16 19 21 25 31 35 34 35 36 37 37 37 38 35 32 32 32 31 31
6 5 2 3 3 5 7 4 8 13 11 10 13 18 21 20 17 11 6 10 16 21 24 25 25 26 26 27 29 32 34 37 37 32 29 29 30 31 31 32 32 31 30 29
5 4 2 3 4 5 9 3 6 4 9 11 13 14 15 18 17 4 7 23 25 23 22 25 26 27 29 29 30 32 34 35 34 32 29 26 26 28 28 29 28 27 26 25
6 5 5 3 4 8 10 5 2 5 9 4 11 6 9 17 4 4 23 27 26 25 25 26 26 27 28 29 29 29 31 32 32 33 33 32 30 28 25 24 24 22 21 21
6 6 15 12 6 7 12 9 6 4 9 6 11 10 12 2 8 25 28 29 29 31 33 31 29 30 31 31 33 34 32 32 31 30 31 29 27 24 22 20 18 17 17 17
8 8 5 8 5 11 6 5 9 4 5 4 9 12 14 19 26 28 30 32 34 36 38 38 37 38 35 35 35 34 33 30 29 27 25 24 23 20 18 16 15 14 13 12
2 6 5 9 7 6 3 3 1 4 3 10 15 14 16 22 27 31 35 34 35 36 38 40 38 37 33 32 35 35 31 28 25 24 22 21 19 16 13 11 10 9 9 8
3 1 3 4 7 2 6 10 10 9 4 11 17 22 21 24 29 31 31 36 40 39 40 38 37 35 33 29 30 32 30 26 23 18 16 15 13 11 8 5 5 6 8 10
6 4 5 3 6 5 12 15 20 18 21 27 31 27 29 29 32 31 30 31 36 37 37 36 37 34 32 29 27 28 26 22 21 17 15 12 9 8 10 13 14 15 15 13
8 7 4 4 4 6 18 32 34 31 28 28 29 31 33 31 28 29 35 37 33 32 35 36 34 31 30 28 25 22 21 19 18 17 13 11 14 16 17 18 19 16 15 16
Wind_Direction
165 96 188 208 186 163 135 132 134 165 212 155 226 262 268 281 280 269 263 258 253 252 255 246 246 246 245 244 240 239 240 241 240 236 228 229 232 234 235 236 234 232 233 241
41 211 221 193 193 198 170 133 282 63 138 159 279 277 258 261 260 257 259 261 258 258 256 253 249 244 245 247 245 242 241 243 243 243 240 235 236 238 241 241 240 239 231 233
155 223 193 158 119 128 165 169 219 211 327 323 20 293 302 285 254 279 267 265 265 261 260 256 249 247 246 243 244 247 248 246 245 246 245 242 240 241 240 241 240 238 238 237
208 220 125 123 171 139 203 254 225 136 71 241 73 286 277 269 283 296 283 265 263 267 265 263 251 244 243 246 248 249 253 253 250 249 248 246 245 243 245 246 246 244 242 241
225 161 140 148 206 151 203 19 130 113 141 27 309 156 271 290 285 271 272 286 287 270 270 253 249 251 250 247 250 252 251 253 254 253 251 250 249 250 251 253 255 251 247 245
141 117 152 163 51 13 151 75 41 42 80 283 204 187 280 215 221 256 354 118 95 37 320 232 228 233 249 247 240 244 246 250 253 253 253 254 254 255 255 254 255 256 255 252
129 199 100 131 80 1 97 90 335 342 353 235 339 219 243 278 250 240 242 241 307 343 327 290 300 275 255 248 248 243 246 253 254 254 254 257 259 260 260 260 261 261 261 261
155 265 165 193 170 175 195 163 160 197 204 270 328 244 263 251 282 235 329 40 29 304 298 288 285 278 263 254 245 249 254 259 257 257 260 260 261 262 265 264 265 268 270 271
153 241 99 118 148 145 207 209 189 87 23 43 234 293 311 316 309 323 316 8 57 23 354 322 309 286 279 276 278 272 270 267 273 272 267 264 264 262 265 269 269 271 273 274
186 141 3 351 125 31 138 169 70 2 161 268 275 275 222 303 286 269 81 65 43 29 24 25 24 358 347 348 339 85 56 22 348 326 307 291 283 278 275 269 267 268 272 273
157 123 299 85 207 168 126 179 176 150 156 185 276 263 225 227 199 112 110 74 25 23 53 57 58 69 57 44 23 348 333 337 324 313 311 306 296 282 274 269 267 265 266 268
216 140 172 202 258 264 163 188 158 147 235 228 182 255 104 122 124 115 95 58 42 29 75 23 12 353 344 340 339 337 325 318 306 300 300 306 303 285 274 270 271 271 269 268
183 49 68 6 354 355 191 201 197 121 89 228 144 259 208 65 46 17 28 355 354 13 8 340 331 325 320 323 325 324 323 314 305 294 295 302 303 284 274 273 274 272 271 269
96 123 181 185 148 99 115 37 15 182 194 243 233 264 264 303 323 319 328 325 318 326 318 317 318 316 317 314 316 316 317 314 306 295 292 299 301 289 278 275 273 271 267 268
113 188 210 248 258 57 305 305 275 238 172 205 251 285 276 300 291 294 310 303 303 311 322 319 313 307 303 301 303 306 307 307 305 297 298 303 301 288 278 274 274 275 266 268
343 181 164 250 248 231 226 235 243 257 263 260 267 264 285 277 282 286 285 292 310 314 316 315 311 308 304 303 305 311 310 308 304 301 300 301 295 290 284 274 273 270 269 270
153 142 147 243 192 165 249 236 216 233 231 237 260 273 285 284 285 285 304 312 324 340 343 336 333 321 310 306 305 306 307 306 305 301 297 293 290 288 286 277 270 269 269 268
163 143 135 209 100 220 239 307 214 226 240 241 253 261 267 279 303 317 301 26 357 345 339 337 333 326 318 311 305 299 297 299 302 302 299 292 286 284 282 278 274 272 269 267
166 138 184 175 192 312 295 260 172 117 282 277 265 276 312 336 322 260 7 349 345 346 337 332 331 329 326 321 314 303 296 295 295 296 293 289 286 283 278 275 270 267 265 262
187 183 190 98 194 209 256 247 288 86 277 73 78 36 349 357 346 273 331 332 332 332 331 330 326 320 317 314 311 312 308 299 294 293 291 288 284 278 274 269 265 262 259 256
167 207 220 230 235 275 258 207 250 214 261 109 8 345 333 257 289 308 318 321 325 325 325 325 323 321 318 315 312 307 307 305 301 295 289 285 279 273 267 264 263 258 254 249
165 167 191 218 221 244 238 81 162 175 155 357 325 318 305 319 321 321 318 311 314 317 320 320 317 316 317 314 307 305 303 303 299 294 288 282 278 272 265 260 257 255 252 247
250 187 182 180 203 224 86 84 264 149 5 308 304 299 305 308 302 305 302 301 307 314 319 321 317 313 313 306 302 299 298 296 290 289 285 280 273 267 260 255 249 238 224 205
280 142 185 65 271 250 310 304 289 271 249 323 325 307 306 303 305 303 308 302 307 311 312 317 319 318 313 306 298 295 290 285 274 271 270 265 261 254 239 209 163 147 149 154
205 135 182 253 287 325 294 308 316 308 305 307 306 303 298 308 307 311 309 311 311 311 310 313 316 317 315 309 299 289 284 273 264 257 245 242 229 191 154 135 127 133 128 124
192 200 168 222 259 283 284 290 291 295 297 299 301 299 295 303 305 308 308 311 314 310 310 311 311 310 310 306 296 282 271 260 258 241 223 188 177 161 153 146 137 133 132 129